Time,TemperatureF,DewpointF,PressureIn,WindDirection,WindDirectionDegrees,WindSpeedMPH,WindSpeedGustMPH,Humidity,HourlyPrecipIn,Conditions,Clouds,dailyrainin,SoftwareType,DateUTC
2013-08-12 00:10:00,67.4,63.0,30.05,WNW,298,0.0,-999.0,85,-99.99,,,0.00,weatherlink.com 1.10,2013-08-12 04:10:00,
2013-08-12 00:25:00,66.8,63.0,30.05,WNW,298,0.0,-999.0,86,-99.99,,,0.00,weatherlink.com 1.10,2013-08-12 04:25:00,
2013-08-12 00:40:00,67.1,63.0,30.05,WNW,298,0.0,-999.0,85,-99.99,,,0.00,weatherlink.com 1.10,2013-08-12 04:40:00,
2013-08-12 00:55:00,67.5,63.0,30.05,WNW,298,0.0,-999.0,85,-99.99,,,0.00,weatherlink.com 1.10,2013-08-12 04:55:00,
2013-08-12 01:10:00,67.8,63.0,30.05,WNW,298,0.0,-999.0,84,-99.99,,,0.00,weatherlink.com 1.10,2013-08-12 05:10:00,
2013-08-12 01:25:00,67.7,63.0,30.04,WNW,298,0.0,-999.0,85,-99.99,,,0.00,weatherlink.com 1.10,2013-08-12 05:25:00,
2013-08-12 01:40:00,67.7,63.0,30.04,WNW,298,0.0,-999.0,85,-99.99,,,0.00,weatherlink.com 1.10,2013-08-12 05:40:00,
2013-08-12 01:55:00,68.0,63.0,30.03,WNW,298,0.0,-999.0,84,-99.99,,,0.00,weatherlink.com 1.10,2013-08-12 05:55:00,
2013-08-12 02:10:00,68.1,63.0,30.03,WNW,298,0.0,-999.0,84,-99.99,,,0.00,weatherlink.com 1.10,2013-08-12 06:10:00,
2013-08-12 02:25:00,68.1,64.0,30.03,WNW,298,0.0,-999.0,86,-99.99,,,0.00,weatherlink.com 1.10,2013-08-12 06:25:00,
2013-08-12 02:40:00,67.7,63.0,30.03,NW,305,0.0,-999.0,85,-99.99,,,0.00,weatherlink.com 1.10,2013-08-12 06:40:00,
2013-08-12 02:55:00,67.7,63.0,30.04,NW,305,0.0,-999.0,86,-99.99,,,0.00,weatherlink.com 1.10,2013-08-12 06:55:00,
2013-08-12 03:10:00,67.6,63.0,30.03,NW,305,0.0,-999.0,86,-99.99,,,0.00,weatherlink.com 1.10,2013-08-12 07:10:00,
2013-08-12 03:25:00,67.6,63.0,30.02,NW,305,0.0,-999.0,85,-99.99,,,0.00,weatherlink.com 1.10,2013-08-12 07:25:00,
2013-08-12 03:40:00,67.7,63.0,30.02,NW,305,0.0,-999.0,84,-99.99,,,0.00,weatherlink.com 1.10,2013-08-12 07:40:00,
2013-08-12 03:55:00,67.6,63.0,30.01,NW,305,0.0,-999.0,84,-99.99,,,0.00,weatherlink.com 1.10,2013-08-12 07:55:00,
2013-08-12 04:10:00,67.3,63.0,30.02,WNW,300,0.0,-999.0,85,-99.99,,,0.00,weatherlink.com 1.10,2013-08-12 08:10:00,
2013-08-12 04:25:00,66.6,63.0,30.01,NW,304,0.0,-999.0,88,-99.99,,,0.00,weatherlink.com 1.10,2013-08-12 08:25:00,
2013-08-12 04:40:00,66.6,64.0,30.02,NW,305,0.0,-999.0,90,-99.99,,,0.00,weatherlink.com 1.10,2013-08-12 08:40:00,
2013-08-12 04:55:00,66.5,64.0,30.01,NW,305,0.0,-999.0,90,-99.99,,,0.00,weatherlink.com 1.10,2013-08-12 08:55:00,
2013-08-12 05:10:00,66.6,63.0,30.01,WNW,293,0.0,-999.0,87,-99.99,,,0.00,weatherlink.com 1.10,2013-08-12 09:10:00,
2013-08-12 05:25:00,66.6,63.0,30.01,WNW,297,0.0,-999.0,88,-99.99,,,0.00,weatherlink.com 1.10,2013-08-12 09:25:00,
2013-08-12 05:40:00,66.7,63.0,30.00,WNW,288,0.0,-999.0,87,-99.99,,,0.00,weatherlink.com 1.10,2013-08-12 09:40:00,
2013-08-12 05:55:00,66.6,63.0,30.00,WNW,293,0.0,-999.0,87,-99.99,,,0.00,weatherlink.com 1.10,2013-08-12 09:55:00,
2013-08-12 06:10:00,66.8,63.0,30.00,WNW,291,0.0,-999.0,87,-99.99,,,0.00,weatherlink.com 1.10,2013-08-12 10:10:00,
2013-08-12 06:25:00,67.1,63.0,30.01,NW,310,0.0,-999.0,87,-99.99,,,0.00,weatherlink.com 1.10,2013-08-12 10:25:00,
2013-08-12 06:40:00,66.7,63.0,30.01,WNW,293,0.0,-999.0,89,-99.99,,,0.00,weatherlink.com 1.10,2013-08-12 10:40:00,
2013-08-12 06:55:00,66.3,64.0,30.01,WNW,293,0.0,-999.0,91,-99.99,,,0.00,weatherlink.com 1.10,2013-08-12 10:55:00,
2013-08-12 07:10:00,66.0,64.0,30.02,WNW,297,0.0,-999.0,93,-99.99,,,0.01,weatherlink.com 1.10,2013-08-12 11:10:00,
2013-08-12 07:25:00,66.0,64.0,30.01,WNW,297,0.0,-999.0,93,-99.99,,,0.01,weatherlink.com 1.10,2013-08-12 11:25:00,
2013-08-12 07:40:00,66.0,64.0,30.02,WNW,297,0.0,-999.0,92,-99.99,,,0.01,weatherlink.com 1.10,2013-08-12 11:40:00,
2013-08-12 07:55:00,66.4,64.0,30.01,WNW,297,0.0,-999.0,92,-99.99,,,0.01,weatherlink.com 1.10,2013-08-12 11:55:00,
2013-08-12 08:10:00,66.9,64.0,30.00,WNW,291,0.0,-999.0,91,-99.99,,,0.01,weatherlink.com 1.10,2013-08-12 12:10:00,
2013-08-12 08:25:00,67.0,64.0,30.01,NW,304,0.0,-999.0,91,-99.99,,,0.03,weatherlink.com 1.10,2013-08-12 12:25:00,
2013-08-12 08:40:00,66.1,64.0,30.03,NW,311,6.0,-999.0,93,-99.99,,,0.11,weatherlink.com 1.10,2013-08-12 12:40:00,
2013-08-12 08:55:00,65.0,64.0,30.03,NW,307,0.0,-999.0,95,-99.99,,,0.19,weatherlink.com 1.10,2013-08-12 12:55:00,
2013-08-12 09:10:00,64.8,64.0,30.03,NW,307,0.0,-999.0,96,-99.99,,,0.29,weatherlink.com 1.10,2013-08-12 13:10:00,
2013-08-12 09:25:00,64.3,64.0,30.02,NW,307,0.0,-999.0,97,-99.99,,,0.57,weatherlink.com 1.10,2013-08-12 13:25:00,
2013-08-12 09:40:00,64.2,64.0,30.02,WNW,303,0.0,-999.0,98,-99.99,,,0.63,weatherlink.com 1.10,2013-08-12 13:40:00,
2013-08-12 09:55:00,64.2,64.0,30.03,WNW,295,0.0,-999.0,98,-99.99,,,0.81,weatherlink.com 1.10,2013-08-12 13:55:00,
2013-08-12 10:10:00,64.6,64.0,30.01,WNW,297,0.0,-999.0,98,-99.99,,,0.98,weatherlink.com 1.10,2013-08-12 14:10:00,
2013-08-12 10:25:00,65.0,65.0,30.01,SSE,159,0.0,-999.0,98,-99.99,,,1.01,weatherlink.com 1.10,2013-08-12 14:25:00,
2013-08-12 10:40:00,65.3,65.0,30.00,SW,222,0.0,-999.0,98,-99.99,,,1.01,weatherlink.com 1.10,2013-08-12 14:40:00,
2013-08-12 10:55:00,65.5,65.0,30.00,SSW,205,4.0,-999.0,98,-99.99,,,1.01,weatherlink.com 1.10,2013-08-12 14:55:00,
2013-08-12 11:10:00,65.5,65.0,30.00,SSE,167,2.0,-999.0,98,-99.99,,,1.02,weatherlink.com 1.10,2013-08-12 15:10:00,
2013-08-12 11:25:00,65.6,65.0,30.01,SW,215,4.0,-999.0,98,-99.99,,,1.03,weatherlink.com 1.10,2013-08-12 15:25:00,
2013-08-12 11:40:00,65.6,65.0,30.01,WSW,255,0.0,-999.0,98,-99.99,,,1.07,weatherlink.com 1.10,2013-08-12 15:40:00,
2013-08-12 11:55:00,65.6,65.0,30.01,NNW,341,0.0,-999.0,98,-99.99,,,1.11,weatherlink.com 1.10,2013-08-12 15:55:00,
2013-08-12 12:10:00,65.3,65.0,30.01,West,271,0.0,-999.0,98,-99.99,,,1.14,weatherlink.com 1.10,2013-08-12 16:10:00,
2013-08-12 12:25:00,65.4,65.0,30.00,SW,224,0.0,-999.0,98,-99.99,,,1.23,weatherlink.com 1.10,2013-08-12 16:25:00,
2013-08-12 12:40:00,65.0,65.0,30.01,WNW,282,0.0,-999.0,98,-99.99,,,1.37,weatherlink.com 1.10,2013-08-12 16:40:00,
2013-08-12 12:55:00,65.1,65.0,29.99,South,174,0.0,-999.0,98,-99.99,,,1.50,weatherlink.com 1.10,2013-08-12 16:55:00,
2013-08-12 13:10:00,65.4,65.0,29.98,SSE,155,0.0,-999.0,99,-99.99,,,1.51,weatherlink.com 1.10,2013-08-12 17:10:00,
2013-08-12 13:25:00,65.5,65.0,29.98,WSW,238,0.0,-999.0,99,-99.99,,,1.54,weatherlink.com 1.10,2013-08-12 17:25:00,
2013-08-12 13:40:00,66.1,66.0,29.98,SSW,210,0.0,-999.0,99,-99.99,,,1.55,weatherlink.com 1.10,2013-08-12 17:40:00,
2013-08-12 14:10:00,66.8,67.0,29.98,SSW,196,2.0,-999.0,99,-99.99,,,1.55,weatherlink.com 1.10,2013-08-12 18:10:00,
2013-08-12 14:25:00,68.5,68.0,29.97,SW,218,0.0,-999.0,99,-99.99,,,1.55,weatherlink.com 1.10,2013-08-12 18:25:00,
2013-08-12 14:40:00,68.6,68.0,29.97,WNW,294,0.0,-999.0,98,-99.99,,,1.55,weatherlink.com 1.10,2013-08-12 18:40:00,
2013-08-12 14:55:00,69.6,69.0,29.96,WNW,295,0.0,-999.0,98,-99.99,,,1.55,weatherlink.com 1.10,2013-08-12 18:55:00,
2013-08-12 15:10:00,70.8,70.0,29.95,ESE,111,1.0,-999.0,97,-99.99,,,1.55,weatherlink.com 1.10,2013-08-12 19:10:00,
2013-08-12 15:25:00,70.8,70.0,29.95,East,84,2.0,-999.0,96,-99.99,,,1.55,weatherlink.com 1.10,2013-08-12 19:25:00,
2013-08-12 15:40:00,72.1,68.0,29.94,East,101,0.0,-999.0,88,-99.99,,,1.55,weatherlink.com 1.10,2013-08-12 19:40:00,
2013-08-12 15:55:00,73.3,69.0,29.93,East,92,1.0,-999.0,85,-99.99,,,1.55,weatherlink.com 1.10,2013-08-12 19:55:00,
2013-08-12 16:10:00,73.5,68.0,29.93,ESE,106,0.0,-999.0,83,-99.99,,,1.55,weatherlink.com 1.10,2013-08-12 20:10:00,
2013-08-12 16:25:00,74.4,69.0,29.92,SE,139,2.0,-999.0,82,-99.99,,,1.55,weatherlink.com 1.10,2013-08-12 20:25:00,
2013-08-12 16:40:00,75.4,68.0,29.91,East,82,3.0,-999.0,78,-99.99,,,1.55,weatherlink.com 1.10,2013-08-12 20:40:00,
2013-08-12 16:55:00,75.7,68.0,29.91,SSE,155,4.0,-999.0,76,-99.99,,,1.55,weatherlink.com 1.10,2013-08-12 20:55:00,
2013-08-12 17:10:00,76.5,68.0,29.90,ESE,115,1.0,-999.0,76,-99.99,,,1.55,weatherlink.com 1.10,2013-08-12 21:10:00,
2013-08-12 17:25:00,76.8,69.0,29.89,SSE,159,2.0,-999.0,76,-99.99,,,1.55,weatherlink.com 1.10,2013-08-12 21:25:00,
2013-08-12 17:40:00,76.6,68.0,29.89,South,174,1.0,-999.0,75,-99.99,,,1.55,weatherlink.com 1.10,2013-08-12 21:40:00,
2013-08-12 17:55:00,76.3,68.0,29.88,SSE,165,2.0,-999.0,76,-99.99,,,1.55,weatherlink.com 1.10,2013-08-12 21:55:00,
2013-08-12 18:10:00,76.1,68.0,29.88,East,86,5.0,-999.0,76,-99.99,,,1.55,weatherlink.com 1.10,2013-08-12 22:10:00,
2013-08-12 18:25:00,75.2,68.0,29.87,ESE,113,2.0,-999.0,79,-99.99,,,1.55,weatherlink.com 1.10,2013-08-12 22:25:00,
2013-08-12 18:40:00,74.5,67.0,29.86,South,179,1.0,-999.0,77,-99.99,,,1.55,weatherlink.com 1.10,2013-08-12 22:40:00,
2013-08-12 18:55:00,74.3,67.0,29.85,ESE,116,1.0,-999.0,79,-99.99,,,1.55,weatherlink.com 1.10,2013-08-12 22:55:00,
2013-08-12 19:10:00,73.5,67.0,29.85,ESE,108,2.0,-999.0,81,-99.99,,,1.55,weatherlink.com 1.10,2013-08-12 23:10:00,
2013-08-12 19:25:00,73.2,68.0,29.84,ENE,77,4.0,-999.0,83,-99.99,,,1.55,weatherlink.com 1.10,2013-08-12 23:25:00,
2013-08-12 19:40:00,73.0,68.0,29.84,ESE,102,3.0,-999.0,84,-99.99,,,1.55,weatherlink.com 1.10,2013-08-12 23:40:00,
2013-08-12 19:58:00,72.7,68.0,29.83,SSE,156,2.0,-999.0,86,-99.99,,,1.55,weatherlink.com 1.10,2013-08-12 23:58:00,
2013-08-12 20:12:00,72.0,68.0,29.84,SW,217,2.0,-999.0,88,-99.99,,,1.57,weatherlink.com 1.10,2013-08-13 00:12:00,
2013-08-12 20:25:00,70.8,68.0,29.86,South,169,2.0,-999.0,91,-99.99,,,1.67,weatherlink.com 1.10,2013-08-13 00:25:00,
2013-08-12 20:40:00,70.5,67.0,29.85,NNE,25,1.0,-999.0,89,-99.99,,,1.72,weatherlink.com 1.10,2013-08-13 00:40:00,
2013-08-12 20:55:00,70.5,67.0,29.83,East,101,2.0,-999.0,87,-99.99,,,1.72,weatherlink.com 1.10,2013-08-13 00:55:00,
2013-08-12 21:10:00,70.1,67.0,29.83,East,83,0.0,-999.0,91,-99.99,,,1.72,weatherlink.com 1.10,2013-08-13 01:10:00,
2013-08-12 21:25:00,69.7,68.0,29.82,East,94,0.0,-999.0,93,-99.99,,,1.72,weatherlink.com 1.10,2013-08-13 01:25:00,
2013-08-12 21:40:00,69.7,67.0,29.86,NW,326,1.0,-999.0,92,-99.99,,,1.72,weatherlink.com 1.10,2013-08-13 01:40:00,
2013-08-12 21:55:00,68.9,66.0,29.85,WNW,301,5.0,-999.0,91,-99.99,,,1.72,weatherlink.com 1.10,2013-08-13 01:55:00,
2013-08-12 22:10:00,67.5,65.0,29.84,NNE,13,1.0,-999.0,92,-99.99,,,1.86,weatherlink.com 1.10,2013-08-13 02:10:00,
2013-08-12 22:25:00,66.8,65.0,29.84,West,274,0.0,-999.0,94,-99.99,,,1.86,weatherlink.com 1.10,2013-08-13 02:25:00,
2013-08-12 22:40:00,66.8,65.0,29.84,ESE,103,0.0,-999.0,94,-99.99,,,1.86,weatherlink.com 1.10,2013-08-13 02:40:00,
2013-08-12 22:55:00,66.8,65.0,29.84,ESE,108,0.0,-999.0,95,-99.99,,,1.86,weatherlink.com 1.10,2013-08-13 02:55:00,
2013-08-12 23:10:00,66.7,65.0,29.84,ESE,113,0.0,-999.0,95,-99.99,,,1.86,weatherlink.com 1.10,2013-08-13 03:10:00,
2013-08-12 23:25:00,66.7,66.0,29.84,NNW,335,1.0,-999.0,96,-99.99,,,1.86,weatherlink.com 1.10,2013-08-13 03:25:00,
2013-08-12 23:40:00,66.8,65.0,29.84,North,355,3.0,-999.0,95,-99.99,,,1.86,weatherlink.com 1.10,2013-08-13 03:40:00,
2013-08-12 23:55:00,66.9,66.0,29.85,WNW,298,1.0,-999.0,96,-99.99,,,1.87,weatherlink.com 1.10,2013-08-13 03:55:00,